This is the latest recevied weather packets stored in our database for station/object XE2RCS-1. If no packets are shown the sender has not sent any weather packets the latest 10 day(s).
| Time | Temp. | Humidity | Pressure | Rain* | Wind** | Luminosity | Snow |
|---|---|---|---|---|---|---|---|
| 1788011397 | 20° C | 66% | 1021 hPa | 0 mm | - | - | - |
| 1788010797 | 20.56° C | 78% | 1021 hPa | 0 mm | - | - | - |
| 1788010196 | 18.89° C | 79% | 1023 hPa | 0 mm | - | - | - |
| 1788009596 | 18.89° C | 80% | 1023 hPa | 0 mm | - | - | - |
| 1788008995 | 18.33° C | 80% | 1023 hPa | 0 mm | - | - | - |
| 1788008394 | 18.33° C | 80% | 1021 hPa | 0 mm | - | - | - |
| 1788007794 | 17.78° C | 80% | 1020 hPa | 0 mm | - | - | - |
| 1788007193 | 17.78° C | 80% | 1020 hPa | 0 mm | - | - | - |
| 1788006592 | 17.78° C | 79% | 1022 hPa | 0 mm | - | - | - |
| 1788005992 | 18.33° C | 77% | 1022 hPa | 0 mm | - | - | - |
| 1788005391 | 18.89° C | 70% | 1020 hPa | 0 mm | - | - | - |
| 1788004790 | 18.89° C | 70% | 1020 hPa | 0 mm | - | - | - |
| 1788004190 | 18.89° C | 69% | 1020 hPa | 0 mm | - | - | - |
| 1788003590 | 18.89° C | 69% | 1020 hPa | 0 mm | - | - | - |
| 1788002989 | 18.89° C | 69% | 1021 hPa | 0 mm | - | - | - |
| 1788002388 | 18.89° C | 69% | 1021 hPa | 0 mm | - | - | - |
| 1788001787 | 18.89° C | 68% | 1021 hPa | 0 mm | - | - | - |
| 1788001186 | 18.89° C | 69% | 1018 hPa | 0 mm | - | - | - |
| 1788000586 | 18.89° C | 69% | 1018 hPa | 0 mm | - | - | - |
| 1787999985 | 18.89° C | 70% | 1018 hPa | 0 mm | - | - | - |
| 1787999385 | 18.89° C | 71% | 1019 hPa | 0 mm | - | - | - |
| 1787998785 | 18.89° C | 70% | 1019 hPa | 0 mm | - | - | - |
| 1787998183 | 18.89° C | 70% | 1019 hPa | 0 mm | - | - | - |
| 1787997583 | 18.89° C | 70% | 1019 hPa | 0 mm | - | - | - |
| 1787996982 | 18.89° C | 69% | 1019 hPa | 0 mm | - | - | - |
* Rain latest hour (hover to see other rain measurements)
** Current wind speed in m/s (hover to see current wind gust speed)